Regional Weather Roundup
Issued by NWS Sioux Falls, SD

Home | Current Version | Previous Version | Graphics & Text | Print | Product List | Glossary Off
Versions: 1 2 3 4 5 6 7 8 9 10 11 12 13 14 15 16 17 18 19 20 21 22 23 24 25 26 27 28 29 30 31 32 33 34 35 36 37 38 39 40 41 42 43 44 45 46 47 48 49 50

041
ASUS43 KFSD 252202
RWRFSD

WEATHER ROUNDUP FOR SE SOUTH DAKOTA/SW MINNESOTA/NW IOWA
NATIONAL WEATHER SERVICE SIOUX FALLS SD
500 PM CDT MON SEP 25 2017

NOTE: "FAIR" INDICATES FEW OR NO CLOUDS BELOW 12,000 FEET WITH NO
SIGNIFICANT WEATHER AND OR OBSTRUCTIONS TO VISIBILITY.


SDZ038>040-050-052>070-252300-
SOUTHEAST SOUTH DAKOTA

CITY           SKY/WX    TMP DP  RH WIND       PRES   REMARKS
BROOKINGS      LGT RAIN  52  49  89 N13       30.03R
CHAMBERLAIN    CLOUDY    55  48  80 N8        30.08R
HURON          CLOUDY    53  48  83 N8        30.06R
MADISON        LGT RAIN  50  50 100 N13       30.02F
MITCHELL       LGT RAIN  53  51  93 N9        30.05R
SIOUX FALLS    LGT RAIN  55  54  96 N8        30.00R
WINNER         CLOUDY    53  46  77 N10       30.08S
YANKTON        CLOUDY    54  52  93 NW14      30.01S
$$

MNZ071-072-080-081-089-090-097-098-252300-
SOUTHWEST MINNESOTA

CITY           SKY/WX    TMP DP  RH WIND       PRES   REMARKS
FAIRMONT       CLOUDY    58  55  90 MISG      29.95F
JACKSON        CLOUDY    55  54  94 N10       29.96R
LUVERNE        LGT RAIN  55  50  82 N6        30.00R
MARSHALL       LGT RAIN  57  52  83 N8        30.00S
MONTEVIDEO     CLOUDY    57  52  82 NE6       30.01S
PIPESTONE      CLOUDY    55  52  88 N3        30.01R
REDWOOD FALLS  CLOUDY    60  53  77 N7        29.99R
TRACY          DRIZZLE   56  55  94 N9        29.99S
WORTHINGTON    CLOUDY    55  53  93 N8        29.99R
$$

IAZ001>003-012>014-020>022-031-032-NEZ013-014-SDZ071-252300-
NORTHWEST IOWA

CITY           SKY/WX    TMP DP  RH WIND       PRES   REMARKS
CHEROKEE       LGT RAIN  58  58 100 N5        29.96R
DENISON        CLOUDY    64  64 100 N6        29.95R
ESTHERVILLE    CLOUDY    56  56 100 N10       29.94S
LE MARS        LGT RAIN  57  55  94 N7        29.96F
ORANGE CITY    LGT RAIN  57  57 100 N3        29.97S
SHELDON        LGT RAIN  55  54  94 N7        29.96R
SIOUX CITY     LGT RAIN  58  57  97 N8        29.97R
SPENCER        CLOUDY    59  56  89 N10       29.97R
STORM LAKE       N/A     61  59  94 N8        29.96R
$$

ABBREVIATIONS USED IN REMARKS
   TC - TEMPERATURE IN CELSIUS
  WCI - WIND CHILL INDEX
   HX - HEAT INDEX
  VSB - VISIBILITY





USA.gov is the U.S. government's official web portal to all federal, state and local government web resources and services.